Location: Cannifist
(18.2333°N, 63.0167°W)
Time: 02:19:23
(UTC+00:00)

N. Korean satellite - Pass Details

Date: 25 June 2021
Orbit: 451 x 498 km, 97.2° (Epoch: 02 August)

Event Time Altitude Azimuth Distance (km) Brightness Sun altitude
Rises 08:35:51 0° 33° (NNE) 2,572 11.5 -13.9°
Reaches altitude 10° 08:38:24 10° 52° (NE) 1,692 10.8 -13.4°
Maximum altitude 08:41:00 19° 98° (E) 1,249 9.3 -12.9°
Drops below altitude 10° 08:43:36 10° 144° (SE) 1,693 9.4 -12.3°
Sets 08:46:09 0° 163° (SSE) 2,572 10.1 -11.8°
